Weather History for Jefferson, NC

Change the Weather History Date:

Thursday, January 17, 2013

  Actual Average Record
Temperature  
Mean Temperature 40 °F -  
Max Temperature 47 °F 41 °F 63 °F (1974)
Min Temperature 30 °F 19 °F -10 °F (1977)
Degree Days  
Heating Degree Days 26    
Moisture  
Dew Point 36 °F    
Average Humidity 93    
Maximum Humidity 98    
Minimum Humidity 80    
Precipitation  
Precipitation 1.48 in - - ()
Sea Level Pressure  
Sea Level Pressure 29.96 in    
Wind  
Wind Speed 5 mph (North)    
Max Wind Speed 16 mph    
Max Gust Speed 26 mph    
Visibility 5 miles    
Events Rain , Snow    
Averages and records for this station are not official NWS values.
T = Trace of Precipitation, MM = Missing Value Source: NWS Daily Summary

Daily Weather History Graph

Daily Weather History Graph

Search for Another Location

Airport:

Trip Planner

Search our weather history database for the weather conditions in past years. The results will help you decide how hot, cold, wet, or windy it might be!

Date:

Astronomy

Jan. 17, 2013 Rise Set
Actual Time 7:35 AM EST 5:36 PM EST
Civil Twilight 7:07 AM EST 6:04 PM EST
Nautical Twilight 6:36 AM EST 6:35 PM EST
Astronomical Twilight 6:05 AM EST 7:06 PM EST
Moon 10:54 AM EST (1/17) No Moon Set
Length of Visible Light 10h 56m
Length of Day
10h 00m
Waxing Crescent, 37% of the Moon is Illuminated
Jan 17
Waxing Crescent
Jan 18
First Quarter
Jan 26
Full
Feb 3
Last Quarter
Feb 10
New

Hourly Weather History & Observations

Time (EST) Temp. Windchill Dew Point Humidity Pressure Visibility Wind Dir Wind Speed Gust Speed Precip Events Conditions
12:15 AM 48.6 °F - 45.5 °F 89% 29.98 in 10.0 mi Calm Calm - N/A Rain Light Rain
12:35 AM 48.6 °F - 46.2 °F 92% 29.97 in 10.0 mi Calm Calm - N/A   Overcast
12:55 AM 47.8 °F - 45.9 °F 93% 29.96 in 0.5 mi North 3.5 mph - N/A Rain Light Rain
1:15 AM 47.5 °F - 45.7 °F 93% 29.96 in 0.5 mi Calm Calm - N/A Rain Rain
1:35 AM 47.7 °F - 45.9 °F 93% 29.97 in 4.0 mi Calm Calm - N/A   Overcast
2:15 AM 47.5 °F - 45.9 °F 94% 29.99 in 10.0 mi NW 3.5 mph - N/A Rain Rain
2:35 AM 47.3 °F - 45.7 °F 94% 30.00 in 10.0 mi NNW 4.6 mph - N/A Rain Rain
2:55 AM 45.5 °F 43.2 °F 43.7 °F 93% 29.99 in 10.0 mi NNW 4.6 mph - N/A   Light Drizzle
3:15 AM 45.5 °F - 43.7 °F 93% 30.00 in 10.0 mi Calm Calm - N/A Rain Light Rain
3:35 AM 45.0 °F 43.5 °F 43.2 °F 93% 30.00 in 10.0 mi North 3.5 mph - N/A Rain Light Rain
3:55 AM 44.4 °F 42.0 °F 42.1 °F 91% 29.98 in 10.0 mi North 4.6 mph - N/A Rain Light Rain
4:15 AM 43.7 °F - 41.7 °F 93% 29.98 in 10.0 mi Calm Calm - N/A Rain Light Rain
4:35 AM 43.7 °F 42.1 °F 41.5 °F 92% 29.97 in 10.0 mi NW 3.5 mph - N/A Rain Rain
4:55 AM 43.5 °F - 41.4 °F 92% 29.97 in 10.0 mi Calm Calm - 0.01 in Rain Light Rain
5:15 AM 43.5 °F 40.1 °F 41.4 °F 92% 29.96 in 10.0 mi NNW 5.8 mph - N/A Rain Light Rain
5:35 AM 43.7 °F 42.1 °F 41.0 °F 90% 29.97 in 10.0 mi North 3.5 mph - N/A   Overcast
5:55 AM 43.0 °F 38.8 °F 40.8 °F 92% 29.97 in 10.0 mi NNW 6.9 mph - N/A Rain Rain
6:15 AM 42.8 °F 40.1 °F 41.0 °F 93% 29.98 in 10.0 mi North 4.6 mph - 0.01 in Rain Rain
6:35 AM 42.8 °F 40.1 °F 41.0 °F 93% 29.97 in 10.0 mi North 4.6 mph - 0.04 in Rain Light Rain
6:55 AM 42.1 °F 39.2 °F 40.3 °F 93% 29.98 in 7.0 mi NNE 4.6 mph - 0.04 in Rain Rain
7:15 AM 41.7 °F 38.0 °F 40.1 °F 94% 29.98 in 1.0 mi North 5.8 mph - N/A   Drizzle
7:35 AM 41.0 °F 36.4 °F 39.6 °F 95% 29.98 in 7.0 mi North 6.9 mph - 0.01 in Rain Rain
7:55 AM 40.5 °F 36.5 °F 39.2 °F 95% 29.98 in 5.0 mi NE 5.8 mph - 0.02 in Rain Light Rain
8:15 AM 39.0 °F 34.0 °F 37.6 °F 95% 29.98 in 1.8 mi ENE 6.9 mph - 0.02 in Rain Light Rain
8:35 AM 38.7 °F 34.3 °F 37.4 °F 95% 29.97 in 5.0 mi NNE 5.8 mph - 0.02 in   Drizzle
8:55 AM 38.7 °F - 37.4 °F 95% 29.98 in 1.0 mi Calm Calm - 0.02 in Rain Rain
9:15 AM 39.0 °F 35.7 °F 37.6 °F 95% 29.99 in 4.0 mi NNW 4.6 mph - 0.02 in Rain Light Rain
9:35 AM 38.8 °F 36.5 °F 37.6 °F 95% 29.98 in 2.5 mi NNE 3.5 mph - 0.05 in Rain Rain
9:55 AM 39.0 °F 35.7 °F 37.6 °F 95% 29.98 in 4.0 mi NNE 4.6 mph - 0.08 in Rain Rain
10:15 AM 38.7 °F 34.3 °F 37.4 °F 95% 29.97 in 2.0 mi NNE 5.8 mph - 0.05 in Rain Rain
10:35 AM 39.2 °F 35.0 °F 37.9 °F 95% 29.97 in 1.8 mi NE 5.8 mph - 0.09 in Rain Rain
10:55 AM 39.2 °F 34.2 °F 37.9 °F 95% 29.96 in 10.0 mi North 6.9 mph - 0.09 in Rain Rain
11:15 AM 38.5 °F 34.1 °F 37.0 °F 95% 29.97 in 2.0 mi North 5.8 mph - 0.04 in Rain Rain
11:35 AM 38.5 °F 35.0 °F 36.9 °F 94% 29.95 in 2.5 mi North 4.6 mph - 0.11 in Rain Light Rain
11:55 AM 38.8 °F 35.4 °F 37.4 °F 95% 29.93 in 10.0 mi NNE 4.6 mph - 0.12 in Rain Rain
12:15 PM 37.4 °F 30.8 °F 35.8 °F 94% 29.92 in 10.0 mi NE 9.2 mph - N/A Rain Light Rain
12:35 PM 36.3 °F 28.9 °F 34.0 °F 91% 29.90 in 10.0 mi NNE 10.4 mph - N/A Rain Light Rain
12:55 PM 35.6 °F 28.6 °F 34.0 °F 94% 29.91 in 1.2 mi North 9.2 mph - 0.05 in Rain Light Rain
1:15 PM 33.8 °F 25.8 °F 32.0 °F 93% 29.92 in 3.0 mi North 10.4 mph 17.3 mph 0.03 in Rain Light Rain
1:35 PM 32.4 °F 24.0 °F 30.9 °F 94% 29.90 in 1.8 mi NNE 10.4 mph 17.3 mph 0.09 in Snow Light Snow
1:55 PM 32.0 °F 24.2 °F 30.9 °F 96% 29.88 in 3.0 mi North 9.2 mph - 0.11 in   Overcast
2:15 PM 32.0 °F 25.6 °F 30.9 °F 96% 29.89 in 1.8 mi North 6.9 mph - 0.04 in Snow Light Snow
2:35 PM 32.0 °F 25.6 °F 31.1 °F 96% 29.89 in 1.2 mi North 6.9 mph - 0.15 in Snow Light Snow
2:55 PM 32.2 °F 27.7 °F 31.5 °F 97% 29.91 in 1.5 mi North 4.6 mph - 0.22 in Snow Light Snow
3:15 PM 32.2 °F 25.8 °F 31.5 °F 97% 29.90 in 1.2 mi North 6.9 mph - 0.08 in Snow Light Snow
3:35 PM 32.2 °F 25.0 °F 31.6 °F 98% 29.90 in 1.0 mi North 8.1 mph - 0.14 in Snow Light Snow
3:55 PM 32.0 °F 23.6 °F 31.1 °F 96% 29.89 in 0.8 mi North 10.4 mph 16.1 mph 0.17 in Snow Light Snow
4:15 PM 32.0 °F 22.5 °F 31.1 °F 96% 29.91 in 0.5 mi North 12.7 mph 19.6 mph 0.03 in Snow Light Snow
4:35 PM 32.0 °F 24.2 °F 31.1 °F 96% 29.92 in 0.5 mi North 9.2 mph 19.6 mph 0.06 in Snow Light Snow
4:55 PM 32.0 °F 22.5 °F 30.9 °F 96% 29.93 in 0.5 mi North 12.7 mph 19.6 mph 0.10 in Snow Snow
5:15 PM 32.0 °F 24.2 °F 30.9 °F 96% 29.95 in 0.5 mi North 9.2 mph - 0.05 in Snow Snow
5:55 PM 31.8 °F 22.8 °F 30.7 °F 96% 29.97 in 0.5 mi North 11.5 mph 19.6 mph 0.14 in Snow Heavy Snow
6:15 PM 31.6 °F 22.6 °F 30.6 °F 96% 29.94 in 0.5 mi North 11.5 mph 19.6 mph 0.07 in Snow Heavy Snow
6:35 PM 31.3 °F 20.7 °F 30.2 °F 96% 29.94 in 0.5 mi North 15.0 mph 24.2 mph 0.12 in Snow Heavy Snow
6:55 PM 31.1 °F 20.1 °F 30.2 °F 96% 29.95 in - North 16.1 mph 23.0 mph 0.15 in   Overcast
7:15 PM 31.1 °F 20.5 °F 30.2 °F 96% 29.93 in - North 15.0 mph - N/A   Unknown
7:35 PM 31.6 °F 22.6 °F 30.6 °F 96% 29.93 in - North 11.5 mph 17.3 mph 0.03 in   Overcast
7:55 PM 32.0 °F 23.0 °F 31.1 °F 96% 29.92 in - North 11.5 mph 26.5 mph 0.13 in   Overcast
8:15 PM 32.0 °F 23.0 °F 31.1 °F 96% 29.93 in 1.2 mi North 11.5 mph 19.6 mph 0.03 in Snow Light Snow
8:35 PM 32.0 °F 24.2 °F 31.1 °F 96% 29.98 in 5.0 mi North 9.2 mph - 0.03 in Snow Light Snow
9:35 PM 32.4 °F 22.5 °F 26.8 °F 80% 30.01 in 7.0 mi North 13.8 mph 25.3 mph N/A   Overcast
9:55 PM 32.0 °F 24.8 °F 27.7 °F 84% 30.05 in 10.0 mi WNW 8.1 mph 16.1 mph N/A   Overcast
10:15 PM 32.0 °F 23.0 °F 27.0 °F 82% 30.06 in 10.0 mi NNW 11.5 mph 17.3 mph N/A   Overcast
10:35 PM 31.6 °F 22.1 °F 26.6 °F 82% 30.09 in 10.0 mi NW 12.7 mph 21.9 mph N/A   Scattered Clouds
10:55 PM 30.7 °F 20.9 °F 26.4 °F 84% 30.09 in 10.0 mi NW 12.7 mph 21.9 mph N/A   Mostly Cloudy